Location: Hradec Kralove
(50.2170°N, 15.8330°E)
Time: 04:01:21
(UTC+01:00)

N. Korean satellite - Pass Details

Date: 10 December 2022
Orbit: 407 x 441 km, 97.3° (Epoch: 05 February)

Event Time Altitude Azimuth Distance (km) Brightness Sun altitude
Rises 17:15:58 0° 203° (SSW) 2,476 10.9 -12.3°
Reaches altitude 10° 17:18:27 10° 222° (SW) 1,615 10.3 -12.7°
Maximum altitude 17:20:56 18° 268° (W) 1,200 9.6 -13.1°
Drops below altitude 10° 17:23:28 10° 314° (NW) 1,636 9.6 -13.5°
Sets 17:26:01 0° 333° (NNW) 2,521 10.3 -13.8°
